Location: Oberkirch
(48.5323°N, 8.0787°E)
Time: 07:13:44
(UTC+00:00)

NOSS 2-1 (E) - Pass Details

Date: 08 November 2025
Orbit: 385 x 1749 km, 63.3° (Epoch: 07 May)

Event Time Altitude Azimuth Distance (km) Brightness Sun altitude
Exits shadow 05:18:52 16° 264° (W) 1,244 4.5 -11.2°
Maximum altitude 05:20:58 30° 319° (NW) 777 3.7 -10.9°
Drops below altitude 10° 05:23:44 10° 24° (NNE) 1,434 5.6 -10.4°
Sets 05:25:50 0° 36° (NE) 2,279 6.8 -10.1°
